Location: *
(42.0175°N, 9.4056°E)
Time: 02:14:24
(UTC+00:00)

Okean 2 Rocket - Pass Details

Date: 25 August 2019
Orbit: 618 x 640 km, 82.5° (Epoch: 16 September)

Event Time Altitude Azimuth Distance (km) Brightness Sun altitude
Exits shadow 20:42:54 45° 28° (NNE) 846 3.8 -25.6°
Drops below altitude 10° 20:46:04 10° 13° (NNE) 1,999 6.0 -26.1°
Sets 20:48:19 0° 11° (N) 2,912 7.0 -26.3°
